Regional Weather Roundup
Issued by NWS Austin/San Antonio, TX

Current Version | Previous Version | Text Only | Print | Product List | Glossary On
Versions: 1 2 3 4 5 6 7 8 9 10 11 12 13 14 15 16 17 18 19 20 21 22 23 24 25 26 27 28 29 30 31 32 33 34 35 36 37 38 39 40 41 42 43 44 45 46 47 48 49 50
000
ASUS44 KEWX 300113
RWREWX
SOUTH TEXAS REGIONAL WEATHER ROUNDUP
NATIONAL WEATHER SERVICE AUSTIN/SAN ANTONIO TX
800 PM CDT THU SEP 29 2022

NOTE: "FAIR" INDICATED FEW OR NO CLOUDS BELOW 12,000 FEET WITH NO
SIGNIFICANT WEATHER AND/OR OBSTRUCTIONS TO VISIBILITY.

* - THESE STATIONS ARE NOT NWS OR FAA STATIONS...AND ARE NOT SUBJECT
    TO NWS AND FAA QUALITY CONTROL.

TXZ171-172-183>190-300200-
TEXAS HILL COUNTRY AND EDWARDS PLATEAU

CITY           SKY/WX    TMP DP  RH WIND       PRES   REMARKS
JUNCTION       CLEAR     81  48  31 S5        30.10S
*LLANO         CLEAR     79  46  31 SW3       30.06S
BURNET         CLEAR     81  48  31 W3        30.08S
*HORSESHOE BAY CLEAR     76  46  34 CALM      30.06S
*LAGO VISTA      N/A     79  45  30 S5        30.07S
*KERRVILLE     CLEAR     80  46  29 E5        30.09F
*FREDERICKSBRG CLEAR     74  47  38 CALM      30.10S
*ROCKSPRINGS   CLEAR     75  46  35 SW6       30.18F
*BOERNE        CLEAR     77  45  31 CALM      30.08S
*CASTROVILLE   CLEAR     84  45  24 S3        30.07S
HONDO          CLEAR     81  49  32 SW8       30.07R
*UVALDE        CLEAR     81  49  33 SW5       30.10S
DEL RIO        CLEAR     81  50  33 SE7       30.08S
*LAUGHLIN AFB  CLEAR     80  49  33 S6        30.06S
*SPOFFORD      CLEAR     79  49  34 CALM      30.07S
CARRIZO SPRGS  CLEAR     77  50  38 MISG      30.06S
*FAITH RANCH   CLEAR     82  48  30 SE6       30.09S
$$

TXZ173-191>194-202-209-217>225-228-300200-
CENTRAL AND SOUTH CENTRAL TEXAS

CITY           SKY/WX    TMP DP  RH WIND       PRES   REMARKS
GEORGETOWN     CLEAR     82  49  31 E3        30.07R
*TAYLOR        CLEAR     80  49  33 E5        30.05R
AUSTIN/BERGSTM CLEAR     76  51  41 S5        30.03S
AUSTIN/MABRY   CLEAR     83  48  29 SE3       30.05S
*PFLUGERVILLE  PTCLDY    79  46  31 E7        30.04R
SAN MARCOS     PTCLDY    91  45  19 SE6       30.05S
NEW BRAUNFELS  CLEAR     81  47  30 SE8       30.03S
*RANDOLPH AFB  CLEAR     82  47  28 S5        30.02S
*SEGUIN        CLEAR     81  47  30 SE5       30.02S
SAN ANTONIO    CLEAR     85  47  26 S9        30.05S
STINSON FIELD  CLEAR     83  48  29 S6        30.03S
*KELLY FIELD   CLEAR     80  47  30 SE5       30.02F
*PLEASANTON    CLEAR     82  51  33 CALM      30.06S
*KENEDY        CLEAR     80  54  41 SE6       30.05S
*LA GRANGE     NOT AVBL
*GIDDINGS      CLEAR     80  48  32 E6        30.06R
*GONZALES      CLEAR     82  51  33 CALM      30.04S
$$

TXZ163>164-176>182-195>201-210>213-226-227-235-300200-
SOUTHEAST TEXAS

CITY           SKY/WX    TMP DP  RH WIND       PRES   REMARKS
COLLEGE STN    CLEAR     80  47  31 E7        30.06S
*BRYAN         CLEAR     75  49  39 E3        30.09S
*CALDWELL      CLEAR     77  51  39 NE5       30.06S
*CROCKETT      CLEAR     70  46  43 N5        30.08S
*BRENHAM       CLEAR     78  50  37 CALM        N/A
HUNTSVILLE     CLEAR     77  47  34 CALM      30.07S
CONROE         CLEAR     68  53  58 CALM      30.07S
HOUSTON BUSH   CLEAR     78  49  35 NE7       30.05S
HOUSTON HOBBY  CLEAR     79  48  33 N7        30.04S
*HOUSTON SW AP NOT AVBL
PEARLAND       CLEAR     73  52  47 CALM      30.05S
HOUSTON HOOKS  CLEAR     77  49  37 NE6       30.06R
ELLINGTON FLD  CLEAR     77  46  33 N7        30.03S
SUGAR LAND     CLEAR     70  54  56 CALM      30.04S
*HOUSTON EXEC  CLEAR     75  50  41 CALM      30.06S
*CLEVELAND MUN NOT AVBL
*WHARTON       CLEAR     75  48  37 E3        30.06R
*COLUMBUS      FAIR      75  51  42 CALM      30.06S
*EAGLE LAKE    CLEAR     74  53  46 MISG      30.05S
$$

TXZ214>216-236>238-300200-
THE UPPER TEXAS COAST

CITY           SKY/WX    TMP DP  RH WIND       PRES   REMARKS
*ORANGE        CLEAR     70  48  45 N3        30.07R
PORT ARTHUR    CLEAR     72  43  35 N10       30.04R
GALVESTON      CLEAR     76  53  44 N5        30.04S
ANGLETON       CLEAR     68  54  60 CALM      30.05S
*BAY CITY      CLEAR     70  59  67 S5        30.06R
PALACIOS       CLEAR     73  60  63 SE7       30.05S
$$

TXZ229>234-239>247-300200-
TEXAS COASTAL BEND AND RIO GRANDE PLAINS

CITY           SKY/WX    TMP DP  RH WIND       PRES   REMARKS
VICTORIA       CLEAR     79  56  45 SE5       30.04S
*BEEVILLE      CLEAR     76  53  45 SE5       30.05S
ROCKPORT       CLEAR     75  62  64 S5        30.05S
*PORT ARANSAS  CLEAR    N/A N/A N/A CALM      30.07S
*PORT LAVACA   CLEAR     78  59  50 S6        30.05S
*INGLESIDE     CLEAR     75  65  69 S5        30.05S
CORPUS CHRISTI CLEAR     80  63  55 SE7       30.05S
CORPUS NAS     CLEAR     79  64  60 E7        30.05F
*ROBSTOWN      CLEAR     80  58  47 MISG      30.06S
ALICE          CLEAR     73  60  63 S3        30.05S
KINGSVILLE NAS CLEAR     75  62  64 S7        30.06S
COTULLA        CLEAR     82  51  34 CALM      30.06S
LAREDO         CLEAR     83  55  38 E7        30.06S
$$

TXZ248>255-300200-
DEEP SOUTH TEXAS

CITY           SKY/WX    TMP DP  RH WIND       PRES   REMARKS
BROWNSVILLE    CLEAR     77  63  61 NE6       30.06S
PORT ISABEL    CLEAR     77  63  61 N5        30.07R
HARLINGEN      CLEAR     72  61  68 E7        30.06S
*HEBBRONVILLE  CLEAR     82  55  39 CALM      30.08F
MCALLEN        CLEAR     83  55  38 E6        30.06S
*WESLACO       CLEAR     80  58  47 E6        30.07S
FALFURRIAS     CLEAR     78  59  52 E3        30.05S
EDINBURG       CLEAR     77  58  50 E5        30.07S
*ZAPATA        CLEAR     80  65  60 CALM      30.07S
$$

TXZ213>215-236>238-242>244-246-247-251-254-255-300200-
CMAN STATIONS

STATION/POSITION TIME  TEMP    WIND        PRES    WAVE
                       AIR SEA DIR/SP/G            HT/PER
                 (UTC) (F)     (DEG/KT/KT) (MB)    (FT/S)
SEA RIM ST PARK  0100   72      20/  6/  7 1017.4
NORTH JETTY/GLS  0030   76 79   60/  1/  3 1016.0
EAGLE POINT      0030   77 78  280/  3/  3 1016.6
MORGANS POINT    0030   79 81  350/  8/ 11 1016.7
MISSION/ARANSAS  0000   80     150/  6     1018.0
PORT O`CONNOR    0030   78 88  130/  7/  8 1017.2
PORT ARANSAS     0100   80     120/  4/  5   N/A
BAFFIN BAY       0030   80 85   70/  6/  8 1018.1
PORT ISABEL      0030   80 81  360/  6/  9 1017.6
$$



USA.gov is the U.S. government's official web portal to all federal, state and local government web resources and services.